Weather History for Hamilton, OH

Change the Weather History Date:

Saturday, March 30, 2013

  Actual Average (KCVG) Record (KCVG)
Temperature  
Mean Temperature 45 °F 48 °F  
Max Temperature 62 °F 59 °F 82 °F (1986)
Min Temperature 28 °F 38 °F 18 °F (1964)
Degree Days  
Heating Degree Days 20 17  
Month to date heating degree days 650  
Since 1 July heating degree days 4477  
Cooling Degree Days 0 0  
Month to date cooling degree days 0  
Year to date cooling degree days 0  
Moisture  
Dew Point 30 °F    
Average Humidity 59    
Maximum Humidity 92    
Minimum Humidity 29    
Precipitation  
Precipitation 0.00 in 0.14 in 1.78 in (1985)
Month to date precipitation 3.82  
Year to date precipitation 9.63  
Snow  
Snow 0.00 in 0.10 in 7.60 in (1987)
Month to date snowfall 3.0  
Since 1 July snowfall 21.6  
Snow Depth -    
Sea Level Pressure  
Sea Level Pressure 30.15 in    
Wind  
Wind Speed 1 mph (SSE)    
Max Wind Speed 7 mph    
Max Gust Speed -    
Visibility 8 miles    
Events      
T = Trace of Precipitation, MM = Missing Value Source: NWS Daily Summary

Daily Weather History Graph

Daily Weather History Graph

Search for Another Location

Airport:

Trip Planner

Search our weather history database for the weather conditions in past years. The results will help you decide how hot, cold, wet, or windy it might be!

Date:

Astronomy

Mar. 30, 2013 Rise Set
Actual Time 7:25 AM EDT 8:00 PM EDT
Civil Twilight 6:58 AM EDT 8:27 PM EDT
Nautical Twilight 6:26 AM EDT 8:59 PM EDT
Astronomical Twilight 5:53 AM EDT 9:31 PM EDT
Moon No Moon Rise 9:20 AM EDT (3/30)
Length of Visible Light 13h 29m
Length of Day
12h 35m
Waning Gibbous, 86% of the Moon is Illuminated
Mar 30
Waning Gibbous
Apr 3
Last Quarter
Apr 10
New
Apr 18
First Quarter
Apr 25
Full

Hourly Weather History & Observations

Time (EDT) Temp. Dew Point Humidity Pressure Visibility Wind Dir Wind Speed Gust Speed Precip Events Conditions
12:53 AM 35.1 °F 28.9 °F 78% 30.26 in 10.0 mi Calm Calm - N/A   Clear
1:53 AM 33.1 °F 30.0 °F 89% 30.26 in 8.0 mi Calm Calm - N/A   Clear
2:53 AM 33.1 °F 28.9 °F 85% 30.26 in 9.0 mi Calm Calm - N/A   Mostly Cloudy
3:53 AM 30.9 °F 27.0 °F 85% 30.25 in 8.0 mi Calm Calm - N/A   Partly Cloudy
4:53 AM 30.0 °F 28.0 °F 92% 30.24 in 6.0 mi Calm Calm - N/A   Clear
5:53 AM 28.9 °F 26.1 °F 89% 30.24 in 5.0 mi Calm Calm - N/A   Clear
6:53 AM 28.9 °F 25.0 °F 85% 30.26 in 5.0 mi Calm Calm - N/A   Clear
7:53 AM 28.9 °F 27.0 °F 92% 30.28 in 3.0 mi Calm Calm - N/A   Mostly Cloudy
8:53 AM 34.0 °F 32.0 °F 92% 30.27 in 4.0 mi Calm Calm - N/A   Clear
9:53 AM 44.1 °F 35.1 °F 71% 30.25 in 6.0 mi Calm Calm - N/A   Haze
10:53 AM 51.1 °F 33.1 °F 50% 30.24 in 9.0 mi Variable 4.6 mph - N/A   Mostly Cloudy
11:53 AM 54.0 °F 28.9 °F 38% 30.22 in 10.0 mi Calm Calm - N/A   Clear
12:53 PM 55.0 °F 28.0 °F 35% 30.19 in 10.0 mi SE 3.5 mph - N/A   Clear
1:53 PM 57.0 °F 28.9 °F 34% 30.16 in 10.0 mi Variable 4.6 mph - N/A   Clear
2:53 PM 60.1 °F 30.0 °F 32% 30.13 in 10.0 mi South 5.8 mph - N/A   Clear
3:53 PM 60.1 °F 30.0 °F 32% 30.09 in 10.0 mi Variable 5.8 mph - N/A   Clear
4:53 PM 61.0 °F 30.9 °F 32% 30.07 in 10.0 mi Variable 3.5 mph - N/A   Clear
5:53 PM 62.1 °F 28.9 °F 29% 30.04 in 10.0 mi SSW 6.9 mph - N/A   Clear
6:53 PM 60.1 °F 28.9 °F 31% 30.03 in 10.0 mi South 5.8 mph - N/A   Clear
7:53 PM 57.0 °F 32.0 °F 39% 30.03 in 10.0 mi South 3.5 mph - N/A   Clear
8:53 PM 55.9 °F 34.0 °F 44% 30.00 in 10.0 mi SE 4.6 mph - N/A   Clear
9:53 PM 54.0 °F 34.0 °F 47% 29.99 in 10.0 mi SSE 3.5 mph - N/A   Clear
10:53 PM 48.0 °F 35.1 °F 61% 29.99 in 10.0 mi Calm Calm - N/A   Clear
11:53 PM 48.0 °F 35.1 °F 61% 29.97 in 10.0 mi Calm Calm - N/A   Clear